[[{"header":{"parameterUnit":"m.s-1","parameterCategory":1,"la1":30.2992,"la2":30.254,"lo1":-89.0895,"lo2":-89.0443,"dy":0.0025,"dx":0.0025,"nx":19,"ny":19,"refTime":"2026-05-22T03:00:00:Z","depth":0,"parameterNumber":2,"parameterNumberName":"U-component_of_WINDS"},"data":[0,0,0,-3.0727,-3.0729,-3.0829,-3.083,-3.0959,-3.0961,0,0,0,0,0,0,0,0,0,0,0,-3.0698,-3.0699,-3.0727,-3.0729,-3.0829,-3.083,-3.0959,-3.0961,0,0,0,0,0,0,0,0,0,0,0,-3.0698,-3.0699,-3.07,-3.073,-3.0829,-3.083,-3.0959,-3.0883,0,0,0,0,0,0,0,0,0,0,-3.0785,-3.076,-3.0699,-3.07,-3.073,-3.0829,-3.083,-3.0879,-3.0888,-3.0915,0,-3.0939,0,-3.0952,-3.0969,-3.097,0,0,0,-3.0729,-3.0753,-3.0779,-3.07,-3.0731,-3.0829,-3.0784,-3.0884,-3.0893,-3.0926,-3.0941,-3.0946,-3.0954,-3.097,-3.0971,-3.1128,-3.1129,0,0,-3.0723,-3.0717,-3.0772,-3.0785,-3.077,-3.0781,-3.0787,-3.089,-3.0905,-3.0941,-3.0949,-3.0956,-3.0971,-3.0972,-3.1127,-3.1128,0,0,0,-3.0708,-3.0713,-3.0737,-3.078,-3.0798,-3.0784,-3.0791,-3.0901,-3.0909,-3.095,-3.0958,-3.0972,-3.0973,-3.1127,-3.1128,-3.1157,0,0,0,-3.0704,-3.0704,-3.0734,-3.0731,-3.0796,-3.0851,-3.08,-3.0902,-3.0914,-3.0957,-3.0972,-3.0975,-3.1126,-3.1127,-3.1155,-3.1172,0,0,0,-3.0691,-3.0702,-3.0717,-3.0731,-3.0773,-3.0849,-3.0863,-3.0905,-3.0919,-3.097,-3.0975,-3.1125,-3.1127,-3.1152,-3.1168,-3.1209,0,0,0,-3.0676,-3.0743,-3.0718,-3.0796,-3.0773,-3.0867,-3.0862,-3.0934,-3.0981,-3.0972,-3.1126,-3.1128,-3.1152,-3.1166,-3.1207,-3.1241,-3.1256,0,0,-3.0757,-3.0753,-3.0799,-3.0779,-3.0876,-3.0852,-3.0954,-3.1004,-3.1016,-3.109,-3.1094,-3.1155,-3.1168,-3.1209,-3.1343,-3.1354,0,0,0,-3.0823,-3.0856,-3.0883,-3.0928,-3.0968,-3.1003,-3.1039,-3.1057,-3.112,-3.1053,-3.1183,-3.1191,-3.1215,-3.1232,-3.1241,-3.1262,-3.1136,-3.1135,-3.1135,-3.0927,-3.0938,-3.1015,-3.1038,-3.1081,-3.1117,-3.1153,-3.1184,-3.1183,-3.1214,-3.1235,-3.1315,-3.1334,-3.1342,-3.1363,-3.1256,-3.1256,-3.1257,-3.1257,-3.1046,-3.1093,-3.109,-3.1163,-3.1174,-3.1236,-3.1273,-3.127,-3.1329,-3.13,-3.1322,-3.1288,-3.1354,-3.1373,-3.1259,-3.1259,-3.1258,-3.1258,-3.1258,-3.1113,-3.1138,-3.1159,-3.1224,-3.1274,-3.1295,-3.1351,-3.136,-3.1369,-3.1391,-3.1413,-3.1412,-3.1411,-3.1401,-3.1401,-3.1402,-3.1402,-3.1402,-3.1402,-3.1174,-3.1197,-3.1243,-3.1291,-3.132,-3.136,-3.1397,-3.1426,-3.1461,-3.1463,-3.1463,-3.1457,-3.1359,-3.1333,-3.1407,-3.1406,-3.1405,-3.1405,-3.1405,-3.1285,-3.1261,-3.1332,-3.1362,-3.1418,-3.1465,-3.1476,-3.1535,-3.1561,-3.1588,-3.1579,-3.1506,-3.1502,-3.1494,-3.1472,-3.1577,-3.1577,-3.1577,-3.1577,-3.134,-3.134,-3.1413,-3.1459,-3.1506,-3.1523,-3.1602,-3.1631,-3.1658,-3.1675,-3.1662,-3.1634,-3.1626,-3.1627,-3.1616,-3.1596,-3.173,-3.1731,-3.1731,-3.1409,-3.1413,-3.1478,-3.1503,-3.1548,-3.1586,-3.166,-3.1713,-3.174,-3.1737,-3.1687,-3.1681,-3.1637,-3.1623,-3.1616,-3.16,-3.1562,0,0]},{"header":{"parameterUnit":"m.s-1","parameterCategory":1,"la1":30.2992,"la2":30.254,"lo1":-89.0895,"lo2":-89.0443,"dy":0.0025,"dx":0.0025,"nx":19,"ny":19,"refTime":"2026-05-22T03:00:00:Z","depth":0,"parameterNumber":3,"parameterNumberName":"V-component_of_WINDS"},"data":[0,0,0,3.448,3.4482,3.4549,3.4549,3.4638,3.4639,0,0,0,0,0,0,0,0,0,0,0,3.4465,3.4466,3.448,3.4482,3.4548,3.4549,3.4638,3.4639,0,0,0,0,0,0,0,0,0,0,0,3.4465,3.4466,3.4467,3.4482,3.4548,3.4549,3.4638,3.4586,0,0,0,0,0,0,0,0,0,0,3.452,3.4511,3.4466,3.4467,3.4483,3.4548,3.4549,3.4583,3.4589,3.4611,0,3.4632,0,3.4637,3.4646,3.4646,0,0,0,3.4479,3.4506,3.452,3.4467,3.4483,3.4548,3.4518,3.4586,3.4593,3.4618,3.4634,3.4637,3.4639,3.4646,3.4647,3.4786,3.4787,0,0,3.4475,3.4479,3.4516,3.4525,3.4516,3.4515,3.452,3.459,3.4607,3.4634,3.4639,3.464,3.4647,3.4648,3.4785,3.4786,0,0,0,3.4467,3.4477,3.4489,3.4521,3.4533,3.4517,3.4522,3.4603,3.4607,3.464,3.4641,3.4647,3.4649,3.4784,3.4785,3.483,0,0,0,3.4464,3.4472,3.4488,3.4491,3.4532,3.4569,3.4534,3.4602,3.461,3.4641,3.4647,3.465,3.4783,3.4785,3.4827,3.4851,0,0,0,3.4459,3.4471,3.4483,3.4491,3.452,3.4568,3.4576,3.4604,3.4611,3.4646,3.465,3.4783,3.4784,3.4824,3.4846,3.4889,0,0,0,3.4455,3.4522,3.4484,3.4559,3.4519,3.4596,3.4575,3.4632,3.4667,3.4648,3.4783,3.4785,3.4824,3.4844,3.4886,3.4926,3.4943,0,0,3.4542,3.4533,3.4576,3.4544,3.4628,3.4585,3.4676,3.4703,3.4702,3.4757,3.4761,3.4828,3.4846,3.4888,3.5036,3.505,0,0,0,3.4605,3.4637,3.4658,3.4692,3.4715,3.4736,3.4749,3.4759,3.4806,3.4732,3.4855,3.4865,3.489,3.4909,3.492,3.4941,3.4794,3.4794,3.4794,3.4735,3.473,3.4801,3.4804,3.4837,3.4849,3.4875,3.489,3.4876,3.4904,3.4921,3.5012,3.5034,3.5042,3.5064,3.4941,3.4942,3.4942,3.4942,3.4862,3.4906,3.4883,3.4945,3.4939,3.499,3.5003,3.4991,3.5037,3.4999,3.502,3.498,3.5057,3.5076,3.4945,3.4945,3.4944,3.4944,3.4944,3.4947,3.4967,3.4978,3.5026,3.5062,3.5062,3.5107,3.5099,3.5091,3.5112,3.5129,3.5128,3.5126,3.5121,3.5121,3.5121,3.5122,3.5122,3.5122,3.5031,3.5042,3.5082,3.511,3.513,3.5155,3.5167,3.5186,3.5205,3.5195,3.5196,3.5177,3.5066,3.5038,3.5127,3.5126,3.5125,3.5125,3.5125,3.5163,3.5132,3.5193,3.5213,3.5245,3.5281,3.527,3.5309,3.5323,3.5345,3.5322,3.5241,3.5231,3.5222,3.5199,3.5323,3.5323,3.5323,3.5323,3.5235,3.5229,3.5289,3.5321,3.5352,3.5347,3.5414,3.5423,3.5427,3.5435,3.5416,3.5384,3.5375,3.537,3.5358,3.5336,3.5493,3.5493,3.5494,3.5316,3.5312,3.5372,3.5376,3.54,3.542,3.5483,3.5519,3.5517,3.55,3.5441,3.5434,3.5383,3.5367,3.535,3.5331,3.5292,0,0]}]]